Sexton Summit, OR

11:39 PM PDT on October 22, 2019 (GMT -0700)
Sexton Summit

Weather History for KSXT - August, 2019

Change the Weather History Date:

Monday, August 5, 2019

  Actual Average Record
Temperature  
Mean Temperature 74 °F -  
Max Temperature 84 °F 75 °F 86 °F (2005)
Min Temperature 64 °F 53 °F 42 °F (2002)
Cooling Degree Days 9    
Growing Degree Days 24 (Base 50)    
Moisture  
Dew Point 54 °F    
Average Humidity 54    
Maximum Humidity 70    
Minimum Humidity 37    
Precipitation  
Precipitation 0.00 in - - ()
Sea Level Pressure  
Sea Level Pressure 29.93 in    
Wind  
Wind Speed 4 mph (North)    
Max Wind Speed 10 mph    
Max Gust Speed -    
Visibility 10 miles    
Events      
Averages and records for this station are not official NWS values.
T = Trace of Precipitation, MM = Missing Value Source: NWS Daily Summary

Daily Weather History Graph

Daily Weather History Graph

Search for Another Location

Airport or City:

Astronomy

Aug. 05, 2019 Rise Set
Actual Time 6:09 AM PDT 8:28 PM PDT
Civil Twilight 5:37 AM PDT 9:00 PM PDT
Nautical Twilight 4:58 AM PDT 9:39 PM PDT
Astronomical Twilight 4:15 AM PDT 10:22 PM PDT
Moon 11:38 AM PDT (8/5) 11:36 PM PDT (8/5)
Length of Visible Light 15h 22m
Length of Day
14h 19m
Waxing Crescent, 29% of the Moon is Illuminated
Aug 5
Waxing Crescent
Aug 7
First Quarter
Aug 15
Full
Aug 23
Last Quarter
Aug 30
New

Hourly Weather History & Observations

Time (PDT) Temp. Heat Index Dew Point Humidity Pressure Visibility Wind Dir Wind Speed Gust Speed Precip Events Conditions
12:56 AM 66.0 °F - 53.1 °F 63% 29.94 in 10.0 mi ENE 3.5 mph - N/A   Clear
1:56 AM 64.9 °F - 52.0 °F 63% 29.93 in 10.0 mi NNW 4.6 mph - N/A   Partly Cloudy
2:56 AM 64.0 °F - 50.0 °F 60% 29.93 in 10.0 mi North 5.8 mph - N/A   Clear
3:56 AM 64.0 °F - 51.1 °F 63% 29.93 in 10.0 mi North 6.9 mph - N/A   Clear
4:56 AM 64.9 °F - 51.1 °F 61% 29.92 in 10.0 mi North 4.6 mph - N/A   Clear
5:56 AM 66.9 °F - 54.0 °F 63% 29.93 in 10.0 mi Calm Calm - N/A   Clear
6:56 AM 66.0 °F - 53.1 °F 63% 29.94 in 10.0 mi Calm Calm - N/A   Clear
7:56 AM 69.1 °F - 54.0 °F 58% 29.95 in 10.0 mi Variable 3.5 mph - N/A   Clear
8:56 AM 71.1 °F - 55.0 °F 57% 29.96 in 10.0 mi Calm Calm - N/A   Clear
9:56 AM 73.0 °F - 54.0 °F 51% 29.97 in 10.0 mi Variable 3.5 mph - N/A   Clear
10:56 AM 75.0 °F - 55.0 °F 50% 29.97 in 10.0 mi Variable 3.5 mph - N/A   Clear
11:56 AM 77.0 °F - 55.9 °F 48% 29.97 in 10.0 mi Calm Calm - N/A   Clear
12:56 PM 78.1 °F - 55.9 °F 46% 29.96 in 10.0 mi Calm Calm - N/A   Clear
1:56 PM 81.0 °F 81.0 °F 57.0 °F 44% 29.94 in 10.0 mi NNW 5.8 mph - N/A   Clear
2:56 PM 82.9 °F 82.1 °F 55.9 °F 39% 29.93 in 10.0 mi Variable 4.6 mph - N/A   Clear
3:56 PM 84.0 °F 82.9 °F 55.0 °F 37% 29.91 in 10.0 mi Variable 4.6 mph - N/A   Clear
4:56 PM 82.9 °F 82.1 °F 55.9 °F 39% 29.91 in 10.0 mi North - - N/A   Clear
5:56 PM 80.1 °F 80.2 °F 55.9 °F 43% 29.90 in 10.0 mi Variable 3.5 mph - N/A   Clear
6:56 PM 75.9 °F - 55.0 °F 48% 29.91 in 10.0 mi Variable 3.5 mph - N/A   Clear
7:56 PM 72.0 °F - 55.9 °F 57% 29.92 in 10.0 mi Variable 5.8 mph - N/A   Clear
8:56 PM 69.1 °F - 55.0 °F 61% 29.93 in 10.0 mi NNW 8.1 mph - N/A   Clear
9:56 PM 66.0 °F - 55.9 °F 70% 29.94 in 10.0 mi NNW 10.4 mph - N/A   Clear
10:56 PM 66.9 °F - 54.0 °F 63% 29.93 in 10.0 mi North 8.1 mph - N/A   Clear
11:56 PM 68.0 °F - 53.1 °F 59% 29.92 in 10.0 mi North 8.1 mph - N/A   Clear